Location: Beeston
(52.7000°N, 0.8167°E)
Time: 08:37:17
(UTC+00:00)

Daily predictions for brighter satellites

Satellite Brightness Start Highest point End
(mag) Time Altitude Azimuth Time Altitude Azimuth Time Altitude Azimuth
DNEPR-1 R/B 4.4 20:22:34 10° NW 20:27:50 74° NE 20:34:18 10° SE
ADEOS 3.9 20:27:48 10° S 20:32:59 67° WSW 20:38:12 10° NNW
Cosmos 1805 4.3 20:30:54 10° NNE 20:33:37 24° ENE 20:36:19 10° SE
Cosmos 1725 Rocket 4.3 20:29:41 10° SSW 20:35:56 75° WNW 20:42:12 10° N
NOSS 3-3 (C) 3.8 20:31:26 10° SSW 20:36:37 59° SE 20:42:53 10° NE
Cosmos 2322 Rocket 2.5 20:34:26 10° NNW 20:40:04 59° NE 20:45:40 10° SE
Cosmos 1602 Rocket 3.9 20:40:11 10° N 20:44:24 49° ENE 20:48:37 10° SSE
USA 306 1.8 20:41:35 10° W 20:44:44 70° N 20:46:49 10° ENE
Tsikada Rocket 4.3 20:38:36 10° NNW 20:44:45 71° W 20:50:51 10° S
Cosmos 2082 Rocket 2.4 20:40:46 10° SW 20:46:30 80° WNW 20:52:15 10° NNE
NOSS 3-4 (A) 3.8 20:40:51 10° NW 20:47:22 85° NE 20:55:06 10° SE
NOSS 3-4 (C) 3.9 20:41:28 10° NW 20:48:01 85° NE 20:55:45 10° SE
Cosmos 2016 Rocket 4.5 20:43:37 10° SSW 20:49:49 66° WNW 20:55:59 10° N
YAOGAN 11 4.2 20:47:14 10° NNE 20:51:39 64° ESE 20:56:06 10° S
CZ-4B R/B 2.7 20:49:58 10° SSE 20:53:14 54° ENE 20:56:40 10° N
Cosmos 2151 2.9 20:50:35 10° N 20:54:43 84° ENE 20:58:49 10° SSE
Cosmos 44 4.3 20:51:57 10° NW 20:57:11 46° NE 21:02:17 10° ESE
Cosmos 2237 Rocket 4.5 20:53:38 10° NNW 20:57:23 17° NNE 21:01:07 10° ENE
Cosmos 2098 Rocket 3.8 20:53:39 10° SSE 20:57:52 34° E 21:01:33 10° NNE
ATLAS 2AS CENTAUR R/B 4.3 20:51:43 10° W 20:58:03 38° NNW 21:04:21 10° NE
CZ-4C R/B 3.3 20:54:58 10° W 20:59:25 45° NNW 21:05:15 10° NE
Cosmos 1626 Rocket 3.9 20:56:10 10° NNW 21:00:31 66° W 21:04:52 10° S
Cosmos 1782 4.4 21:00:07 10° SW 21:03:20 32° WNW 21:06:34 10° N
Ariane Rocket 3.1 20:59:02 11° SSE 21:03:53 65° ENE 21:08:55 10° N
Cosmos 2278 3.9 21:01:33 10° NNW 21:07:17 76° WSW 21:12:37 12° SSE
Spot 2 Rocket 4.2 21:04:26 10° S 21:09:18 50° W 21:14:14 10° NNW
SL-16 R/B 2.7 21:05:43 10° NW 21:11:16 58° WSW 21:16:43 10° S
COSMOS 2428 4.1 21:06:48 10° NNW 21:11:46 30° NE 21:16:43 10° E
Meteor 1-5 Rocket 4.4 21:06:33 10° N 21:12:18 70° ENE 21:17:38 13° SSE
SPOT 3 Rocket 3.6 21:09:24 10° SSE 21:14:30 85° WSW 21:19:41 10° NNW
Cosmos 1763 Rocket 4.4 21:10:53 12° SSE 21:15:02 30° ESE 21:19:35 10° NE
USA 186 3.0 21:13:29 10° SSW 21:15:57 30° W 21:18:27 10° NNW
USA 290 3.1 21:18:07 17° SSE 21:19:54 29° ESE 21:22:41 10° NE
Cosmos 1606 Rocket 4.0 21:17:15 14° SSE 21:20:44 43° E 21:24:50 10° NNE
Cosmos 990 Rocket 4.2 21:16:47 10° NNW 21:21:55 60° ENE 21:26:04 16° SE
Cosmos 1513 Rocket 4.5 21:16:32 10° S 21:22:43 79° E 21:28:51 10° NNE
Cosmos 1933 3.3 21:20:43 10° SSW 21:24:30 80° W 21:28:20 10° N
Cosmos 1464 Rocket 4.1 21:18:45 10° S 21:24:45 60° E 21:30:51 10° NNE
SL-08 R/B 4.4 21:20:25 10° N 21:25:04 48° WNW 21:29:37 10° SW
ISS -3.8 21:21:48 10° W 21:25:08 73° S 21:28:15 12° E
Cosmos 1461 2.5 21:22:30 10° SW 21:26:13 87° NW 21:29:54 10° NE
Helios 1B rocket 4.1 21:24:21 10° E 21:26:40 17° ENE 21:29:00 10° NNE
BREEZE-M DEB (TANK) 1.6 21:24:50 10° WSW 21:27:26 37° S 21:28:12 25° SE
CZ-4B R/B 3.4 21:23:15 13° SSE 21:27:31 79° WSW 21:32:26 10° NNW
Okean 1 3.7 21:25:54 18° SSE 21:28:07 38° E 21:31:30 10° NNE
Cosmos 1726 Rocket 4.1 21:25:49 17° SSE 21:28:26 36° E 21:32:10 10° NNE
COSMOS 2406 3.5 21:24:53 10° SW 21:30:38 76° WNW 21:36:25 10° NNE
Terra 4.2 21:28:42 10° SW 21:31:56 18° W 21:35:13 10° NW
Okean O Rocket 3.3 21:31:09 10° SSW 21:34:52 28° W 21:38:38 10° NW
Cosmos 1536 4.0 21:31:45 10° N 21:34:55 26° ENE 21:36:59 16° ESE
Cosmos 1428 Rocket 4.5 21:30:40 10° N 21:36:56 79° ENE 21:42:00 16° SSE
Cosmos 1777 Rocket 4.3 21:34:04 10° NNW 21:39:15 63° WSW 21:43:21 16° S
Cosmos-2242 4.0 21:37:47 19° SE 21:39:50 29° E 21:43:24 10° NNE
Cosmos 1092 Rocket 4.4 21:34:47 10° N 21:40:48 51° ENE 21:45:21 18° SE
Cosmos 2333 Rocket 3.2 21:36:20 10° NW 21:41:38 40° WSW 21:46:30 12° S
Cosmos 1437 Rocket 3.6 21:38:35 10° SSW 21:42:00 45° WNW 21:45:31 10° N
Okean 1-7 Rocket 3.8 21:42:22 10° NNW 21:46:50 69° W 21:50:19 16° S
Cosmos 1503 Rocket 4.2 21:44:11 10° NNW 21:49:20 67° WSW 21:53:04 19° S
Cosmos 1833 4.4 21:44:12 11° S 21:49:32 51° ESE 21:54:59 10° NE
Cosmos 2360 Rocket 2.7 21:46:00 10° NW 21:51:33 54° WSW 21:55:44 17° S
CZ-2C R/B 2.7 21:52:45 22° SSW 21:54:12 43° W 21:56:53 10° NNW
Cosmos 1766 3.2 21:52:16 10° N 21:55:24 48° ENE 21:56:45 28° SE
Cosmos 2322 4.2 21:50:22 10° NNW 21:55:58 52° NE 22:00:18 17° ESE
Cosmos 1975 4.5 21:54:39 10° NNE 21:57:25 20° ENE 21:59:14 14° ESE
Cosmos 372 Rocket 4.2 21:57:00 10° NNW 22:02:05 59° ENE 22:05:24 21° SE
Cosmos 2034 Rocket 4.0 21:58:36 15° S 22:03:54 76° E 22:10:15 10° NNE
Cosmos 2219 Rocket 2.4 21:58:41 10° NW 22:04:19 67° WSW 22:08:05 21° SSE
Cosmos 1354 Rocket 4.1 21:59:08 10° NNW 22:04:23 72° WSW 22:07:46 22° SSE
Cosmos 2221 4.2 22:03:18 15° ESE 22:04:42 18° E 22:07:33 10° NE
Cosmos 1271 Rocket 4.0 22:06:21 19° ESE 22:06:55 20° E 22:09:28 10° NE
Cosmos 1825 Rocket 4.3 22:06:36 10° NNW 22:10:47 48° W 22:13:51 17° SSW
USA 306 2.0 22:09:30 10° WNW 22:11:19 39° NW 22:11:19 39° NW
Cosmos 540 Rocket 3.4 22:07:44 15° SSW 22:12:01 72° ESE 22:17:10 10° NNE
Helios 1A 3.1 22:12:40 10° NNE 22:16:30 49° E 22:18:07 30° SSE
Cosmos 1953 Rocket 3.7 22:13:20 10° NNW 22:17:40 67° W 22:20:10 24° S
RESURS DK-1 2.6 22:14:42 10° NNW 22:18:39 59° NE 22:20:45 25° SE
Aureole 1 Rocket 4.0 22:14:23 10° NNW 22:20:07 83° WSW 22:24:34 23° SSE
Cosmos 2322 Rocket 3.5 22:18:54 10° NW 22:23:48 31° WSW 22:27:37 15° SSW
Cosmos 1707 1.7 22:23:33 48° S 22:24:12 80° E 22:27:03 10° NNE
Cosmos 1634 Rocket 4.0 22:22:33 22° S 22:26:34 65° E 22:32:43 10° NNE
Cosmos 1937 Rocket 3.9 22:21:54 10° NNW 22:26:58 54° ENE 22:30:08 22° SE
TSX-5 3.1 22:25:46 10° NW 22:28:54 80° SW 22:29:55 41° SSE
SL-16 R/B 4.4 22:26:29 10° NNW 22:30:46 21° NNE 22:35:03 10° E
Geosat 4.1 22:27:39 10° NE 22:32:37 59° ESE 22:35:38 23° S
Cosmos 2058 Rocket 2.9 22:30:59 28° S 22:33:16 81° E 22:37:37 10° NNE
Cosmos 468 Rocket 4.0 22:30:13 23° S 22:33:27 63° ESE 22:38:39 10° NNE
Cosmos 2026 Rocket 4.3 22:30:59 10° NNW 22:37:17 63° W 22:41:40 21° S
Meteor 2-9 Rocket 4.3 22:32:58 10° N 22:38:20 64° ENE 22:41:25 26° SSE
Cosmos 44 3.9 22:33:14 10° NW 22:38:28 51° WSW 22:41:01 27° S
Cosmos 2237 Rocket 2.9 22:37:21 10° NNW 22:42:53 48° NE 22:47:09 16° ESE
CZ-2C R/B 4.2 22:39:09 12° ESE 22:43:04 26° ENE 22:47:18 10° N
Cosmos 2266 Rocket 4.4 22:40:57 10° N 22:46:50 51° ENE 22:50:26 23° SE
Cosmos 1980 4.2 22:41:37 10° NNW 22:47:11 54° NE 22:51:12 19° ESE
USA 234 4.2 22:43:05 10° ENE 22:48:17 25° SE 22:49:36 23° SE
Cosmos 1470 2.2 22:45:12 10° N 22:48:31 82° ENE 22:49:19 49° SSE
SeaSat 1 4.5 22:44:55 10° E 22:48:45 24° NE 22:52:35 10° NNW
CZ-4C R/B 4.3 22:44:17 10° WNW 22:49:01 30° N 22:54:59 10° ENE
ATLAS 2AS CENTAUR R/B 4.3 22:44:27 10° NW 22:50:38 35° N 22:56:45 10° ENE
USA 290 4.5 22:51:26 10° WSW 22:54:02 23° NW 22:56:38 10° N
ARIANE 5 R/B 2.7 22:52:41 32° SSE 22:54:41 72° ENE 22:59:10 10° NNW
Cosmos 1763 Rocket 4.2 22:51:20 10° SW 22:56:29 52° WNW 23:01:40 10° NNE
COSMOS 2428 2.7 22:50:52 10° NNW 22:56:35 76° WSW 22:59:34 29° SSE
ALOS 2 2.8 22:54:46 31° SE 22:56:45 63° ENE 23:01:06 10° N
Cosmos 2227 Rocket 4.1 22:55:49 12° ESE 22:57:26 13° E 23:00:04 10° ENE
Helios 1B rocket 2.4 22:58:18 37° SSW 22:59:19 52° WSW 23:02:45 10° NNW
ISS -2.9 22:58:36 10° W 23:01:11 33° SW 23:01:11 33° SW
Cosmos 1898 Rocket 3.6 22:56:57 10° NNW 23:02:07 68° WSW 23:04:33 31° S
CZ-2C R/B 4.3 23:01:41 10° NNE 23:06:52 33° E 23:09:26 23° SE
Meteor 1-11 Rocket 3.8 23:01:33 10° N 23:07:14 72° ENE 23:10:10 29° SSE
Cosmos 1536 4.0 23:06:53 10° NNW 23:10:09 30° W 23:11:30 23° SW
SAR-Lupe-2 3.6 23:10:57 45° SE 23:11:43 62° ENE 23:15:01 10° N
Cosmos 1238 Rocket 4.2 23:14:04 23° ESE 23:15:19 27° E 23:19:02 10° NNE
PSLV R/B 3.9 23:11:39 10° NNE 23:15:51 50° E 23:17:16 35° SSE
Cosmos-2242 4.3 23:14:02 16° SW 23:16:45 33° WNW 23:20:31 10° N
NOSS 8 (H) 3.9 23:16:29 10° NW 23:19:21 77° SW 23:19:32 72° S
Alouette 2 Rocket 4.3 23:22:29 10° N 23:26:04 42° ENE 23:28:18 24° SE
NOSS 0 Rocket 4.1 23:21:43 10° NW 23:27:47 61° WSW 23:30:49 30° S
Meteor 1-27 Rocket 4.2 23:25:49 29° SSE 23:28:33 51° E 23:34:05 10° NNE
Cosmos 841 Rocket 3.4 23:27:23 29° SSW 23:30:09 89° ESE 23:35:27 10° NNE
Cosmos 2297 Rocket 2.5 23:27:59 31° SSE 23:30:16 49° ESE 23:35:42 10° NE
Cosmos 1842 4.0 23:29:26 26° WSW 23:30:23 33° WNW 23:33:18 10° N
Cosmos 1975 3.3 23:29:05 10° NNW 23:32:35 41° W 23:33:29 34° SW
Cosmos 2142 Rocket 4.5 23:30:57 27° SSW 23:34:35 82° W 23:40:50 10° N
Spot 4 4.3 23:36:12 31° SSW 23:38:06 50° W 23:42:47 10° NNW
Cosmos 1271 Rocket 3.7 23:39:41 25° WSW 23:40:57 33° WNW 23:44:03 10° N
Cosmos 2221 2.8 23:39:35 32° SW 23:41:18 56° WNW 23:45:27 10° N
Cosmos 1812 Rocket 3.6 23:39:58 36° SSW 23:41:43 76° WNW 23:46:10 10° N
ACS3 Solar Sail 3.2 23:37:57 10° NNE 23:42:50 25° E 23:46:10 16° SE
MetOp-A 3.7 23:42:38 35° SSE 23:44:44 90° WSW 23:49:22 10° NNW
Helios 1B 4.4 23:42:35 10° NNE 23:46:52 88° W 23:48:25 39° SSW
Cosmos 2219 Rocket 4.3 23:44:44 10° WNW 23:47:10 13° W 23:49:35 10° WSW
NOSS 8 (E) 4.3 23:47:07 10° NW 23:49:44 53° WSW 23:49:44 53° WSW
RESURS DK-1 4.0 23:52:47 10° WNW 23:55:38 19° WSW 23:55:58 19° WSW
